Location: Seattle
(47.6064°N, 122.3308°W)
Time: 07:50:09
(UTC-07:00)

RS-15 - Pass Details

Date: 09 April 2023
Orbit: 1885 x 2159 km, 64.8° (Epoch: 01 June)

Event Time Altitude Azimuth Distance (km) Brightness Sun altitude
Rises 23:19:30 0° 320° (NW) 5,644 11.6 -29.3°
Reaches altitude 10° 23:22:59 10° 321° (NW) 4,614 10.9 -29.6°
Maximum altitude 23:35:04 90° 249° (WSW) 2,043 7.9 -30.6°
Enters shadow 23:38:36 54° 144° (SE) 2,359 8.0 -30.9°
